Preview of NWS' New Version of Forecast
This preview is not operational and should not be used for support decisions.

Regional Weather Roundup (RWR)

Issued by National Weather Service (NWS)

                            
000
ASUS44 KJAN 230110
RWRMS 

MISSISSIPPI HOURLY WEATHER ROUNDUP
NATIONAL WEATHER SERVICE JACKSON MS
800 PM CDT FRI MAR 22 2019

NOTE: "FAIR: INDICATES FEW OR NO CLOUDS BELOW 12,000 FEET WITH NO
SIGNIFICANT WEATHER AND/OR OBSTRUCTIONS TO VISIBILITY.

MSZ001>002-007>008-010>013-018>021-025>028-034>036-230200-
NORTHWEST MISSISSIPPI
  
CITY           SKY/WX    TMP DP  RH WIND       PRES   REMARKS
BATESVILLE     FAIR      54  37  54 CALM      30.12S                  
CLARKSDALE       N/A     57  37  47 CALM      30.14S                  
CLEVELAND      FAIR      60  35  38 NW5       30.14R                  
GREENWOOD      FAIR      55  39  54 CALM      30.13R                  
GREENVILLE     FAIR      58  36  43 CALM      30.13R                  
OLIVE BRANCH   PTCLDY    61  28  29 VRB6      30.13R                  
OXFORD         FAIR      54  36  50 CALM      30.14S                  
TUNICA           N/A     54  43  66 CALM      30.14S                  
WINONA         FAIR      53  40  60 CALM      30.12S                  
$$

MSZ003>006-009-014>017-022>024-029>033-037>039-230200-
NORTHEAST MISSISSIPPI
  
CITY           SKY/WX    TMP DP  RH WIND       PRES   REMARKS
ABERDEEN       FAIR      54  41  62 CALM      30.13R                  
COLUMBUS AFB   NOT AVBL                                               
CORINTH        FAIR      57  30  35 NW7       30.12R                  
GOLDN TRIANGLE FAIR      59  37  44 CALM      30.12R                  
STARKVILLE     FAIR      54  41  62 CALM      30.13R                  
TUPELO         FAIR      57  34  41 NW3       30.12R                  
$$

MSZ040-058-230200-
CENTRAL MISSISSIPPI
  
CITY           SKY/WX    TMP DP  RH WIND       PRES   REMARKS
JACKSON INTL   FAIR      58  38  47 CALM      30.12R                  
JACKSON HAWKNS FAIR      63  37  38 N3        30.13R                  
MADISON        FAIR      55  37  50 CALM      30.13R                  
MERIDIAN KEY   FAIR      56  43  61 W3        30.12R                  
MERIDIAN NAS   FAIR      61  37  41 CALM      30.12R                  
RAYMOND        FAIR      59  45  58 CALM      30.12S                  
VICKSBURG VKS  CLEAR     59  41  51 CALM      30.14R                  
$$

MSZ059>079-230200-
SOUTH MISSISSIPPI
  
CITY           SKY/WX    TMP DP  RH WIND       PRES   REMARKS
HATTIESBURG    FAIR      59  43  55 CALM      30.12R                  
LAUREL         CLEAR     58  44  59 NW3       30.12R                  
MCCOMB         FAIR      64  38  38 NE3       30.11R                  
NATCHEZ        FAIR      61  41  47 CALM      30.13R                  
PINE BELT      FAIR      53  44  71 CALM      30.13R                  
$$

MSZ080>082-230200-
COASTAL MISSISSIPPI
  
CITY           SKY/WX    TMP DP  RH WIND       PRES   REMARKS
BAY ST LOUIS   CLEAR     57  50  77 VRB3      30.12R                  
BILOXI         NOT AVBL                                               
PASCAGOULA     FAIR      55  48  77 CALM      30.13R                  
GULFPORT       FAIR      59  50  72 CALM      30.12R                  
$$

LAZ007>009-015>016-023>026-230200-
NORTHEAST LOUISIANA
  
CITY           SKY/WX    TMP DP  RH WIND       PRES   REMARKS
BASTROP        FAIR      58  42  54 CALM      30.12S                  
TALLULAH/VBURG FAIR      59  43  55 CALM      30.13R                  
VIDALIA        FAIR      63  40  43 N5        30.11R                  
$$